Dewpoint
7 7 7 7 4 2 -3 -11 -24 -32 -34 -34 -34 -34 -33 -33 -32 -22 -6 -5 -7 -25 -20 -12 -12 -13 -14 -13 -16 -17 -11 -8 -9 -9 -14 -15 -11 -14 -15 -17 -18 -17 -16 -17 -17
8 8 8 8 7 4 -1 -7 -17 -30 -34 -34 -34 -34 -33 -33 -33 -23 -8 -9 -20 -21 -19 -14 -13 -14 -15 -16 -16 -15 -11 -11 -13 -16 -15 -16 -16 -16 -16 -18 -18 -18 -19 -19 -19
9 9 8 8 8 6 2 -5 -11 -22 -30 -34 -34 -34 -32 -32 -15 -5 -9 -13 -27 -29 -25 -13 -13 -13 -15 -16 -17 -16 -14 -16 -16 -14 -17 -16 -16 -17 -17 -17 -17 -18 -18 -18 -18
9 9 10 9 8 7 6 -1 -9 -16 -19 -30 -33 -33 -31 -30 -4 -7 -13 -25 -29 -24 -11 -12 -12 -14 -13 -14 -15 -15 -16 -15 -14 -15 -16 -17 -17 -17 -17 -17 -17 -17 -17 -17 -16
10 10 10 10 9 8 7 4 -5 -15 -14 -17 -31 -32 -31 -4 -7 -11 -12 -21 -20 -13 -10 -11 -11 -11 -11 -12 -15 -15 -15 -15 -14 -13 -14 -17 -16 -16 -16 -16 -17 -16 -16 -17 -17
9 9 9 9 9 9 8 7 0 -9 -14 -15 -30 -31 -25 -1 -11 -13 -14 -22 -13 -10 -10 -10 -9 -9 -10 -11 -9 -12 -11 -11 -11 -12 -13 -14 -15 -17 -18 -18 -17 -15 -15 -11 -3
9 9 9 9 9 9 9 8 5 -4 -11 -23 -30 -30 -23 -23 -12 -12 -15 -11 -9 -10 -10 -9 -9 -9 -9 -9 -10 -10 -8 -9 -11 -13 -13 -15 -16 -15 -15 -16 -15 -6 -3 -2 -3
8 9 9 8 9 9 9 9 7 0 -9 -24 -27 -24 -18 -11 -12 -11 -9 -9 -9 -10 -9 -9 -9 -8 -8 -9 -7 -10 -11 -9 -11 -14 -16 -16 -12 -13 -12 -11 -3 -2 -2 -2 -2
7 7 8 8 8 8 8 8 8 2 -12 -23 -21 -8 -7 -8 -9 -11 -12 -9 -9 -9 -9 -7 -9 -8 -7 -6 -5 -6 -6 -8 -10 -15 -14 -14 -12 -11 -11 -3 -2 -2 -2 -2 -3
-0 2 4 6 8 7 8 8 7 7 -10 -12 -13 -3 -4 -7 -9 -12 -10 -9 -10 -10 -8 -7 -6 -5 -5 -5 -4 -6 -8 -11 -13 -16 -14 -11 -10 -10 -2 -2 -2 -2 -2 -2 -3
-1 -1 2 5 7 7 7 7 6 4 -1 -1 -3 -8 -11 -10 -11 -10 -10 -10 -10 -10 -7 -7 -3 -3 -5 -7 -8 -9 -10 -11 -12 -13 -10 -10 -9 -3 -2 -2 -3 -2 -2 -2 -2
-2 -2 -1 -1 5 7 7 6 4 1 0 -2 -3 -3 -7 -11 -10 -10 -11 -10 -9 -7 -7 -6 -3 -5 -7 -8 -9 -9 -7 -7 -9 -10 -10 -10 -8 -2 -3 -3 -3 -3 -2 -2 -2
-2 -2 -1 2 4 5 5 5 4 0 -1 1 2 -3 -4 -9 -10 -11 -12 -10 -9 -6 -5 -5 -5 -6 -6 -6 -7 -9 -7 -7 -7 -8 -9 -9 -4 -1 -3 -3 -3 -3 -2 -2 -2
-3 -1 2 4 4 4 5 4 3 -3 4 2 1 -2 -5 -10 -10 -11 -12 -11 -10 -8 -8 -6 -9 -7 -7 -7 -9 -7 -8 -7 -6 -5 -3 -6 -1 -0 -2 -1 -2 -2 -2 -2 -3
-5 -1 2 4 4 4 3 5 2 2 6 -0 0 -3 -4 -10 -10 -11 -12 -11 -9 -7 -7 -3 -5 -5 -4 -6 -8 -5 -6 -5 -4 -3 -3 -3 -0 0 -1 0 -1 -2 -2 -2 -3
-5 -1 2 3 3 3 3 4 -1 4 6 1 -4 -7 -9 -10 -10 -13 -11 -10 -10 -8 -9 -6 -7 -7 -6 -7 -7 -7 -5 -3 -3 -1 3 -0 0 2 1 0 -1 -2 -2 -2 -3
-3 -0 2 2 3 3 2 -2 3 5 -2 -0 -4 -6 -8 -8 -8 -9 -8 -7 -5 -3 -3 -6 -6 -9 -10 -5 -6 -5 -2 2 3 4 4 -3 1 1 -0 -1 -1 -2 -2 -2 -3
-0 0 1 1 3 3 0 1 4 1 0 -3 -6 -6 -6 -7 -7 -8 -8 -5 -7 -7 -7 -5 -2 -8 -6 -3 -3 -2 -1 2 4 4 3 -1 3 1 -2 -2 -2 -2 -2 -2 -3
0 1 1 2 3 2 1 3 0 0 -1 -1 -6 -5 -6 -7 -5 -7 -4 -4 -6 -8 -3 -4 -3 -8 -6 -7 -6 -0 2 -0 1 1 3 3 1 -1 -2 -2 -2 -2 -2 -3 -3
1 2 2 2 3 1 2 2 -0 -1 -3 -2 0 -4 -2 -5 -5 -3 -3 -6 -6 -8 -7 -4 -1 -4 -8 -11 -9 -4 -4 -0 3 6 3 4 4 4 0 -1 -3 -2 -3 -3 -3
2 3 3 3 2 2 3 2 -1 -1 0 1 1 -2 -4 -5 -5 1 -1 -4 -7 -9 -10 -7 -4 -4 -6 -5 -6 -3 0 1 0 1 3 3 3 2 -0 -1 -2 -3 -4 -4 -3
3 2 2 3 1 1 3 -0 -1 -1 -1 -1 2 1 -1 -5 -5 -2 -3 -3 -8 -9 -8 -4 -2 -2 -6 -8 -8 -4 1 -1 1 2 2 3 3 -0 -1 -2 -2 -2 -4 -4 -4
2 1 2 2 3 2 1 1 -1 -1 -0 1 -1 -3 -3 -2 -2 -2 -3 -5 -9 -7 -4 -3 -1 1 -2 -5 -6 -4 -2 -3 -1 0 2 2 1 0 -1 -1 -1 -2 -4 -5 -5
-0 0 0 1 1 -0 1 1 1 -0 -1 -3 -2 -5 -2 -1 -2 -2 -2 -4 -9 -3 -4 -3 -1 2 1 1 1 1 -1 -2 -1 2 1 1 1 -1 -0 -1 -2 -3 -4 -5 -5
-0 0 -0 1 0 0 -0 1 1 -0 -3 -2 -2 -3 -2 1 1 -1 -2 -5 -7 -5 -4 -1 2 -1 -3 -1 -1 -1 -1 -0 -0 -0 2 3 1 0 -0 -2 -3 -5 -5 -6 -6
0 0 -1 -1 1 1 1 2 1 0 -4 -3 -2 -3 -3 -0 -0 -2 -1 -3 -4 -4 -2 -2 1 -1 -2 -4 1 0 -2 -1 -1 -1 1 2 1 -2 -2 -3 -5 -6 -6 -6 -6
1 -0 -2 -1 1 2 1 1 2 -2 -5 -6 -5 -4 -3 -4 -9 -6 -5 -7 -6 -2 -1 -0 1 -1 0 1 1 1 1 1 0 -0 0 1 -0 -2 -3 -5 -6 -6 -6 -6 -7
Wind_Speed
10 10 11 11 12 12 12 11 11 10 10 10 9 9 9 9 6 5 5 3 10 12 3 5 6 9 6 12 8 10 3 3 7 3 8 20 11 23 16 25 18 13 12 17 19
12 11 11 13 12 12 11 11 11 11 11 11 11 10 10 11 9 8 7 8 9 5 2 6 7 11 6 9 8 5 3 8 8 3 4 13 15 17 12 19 16 20 20 21 22
15 15 12 12 12 13 11 11 10 10 10 11 11 10 11 12 11 4 5 5 2 5 7 8 8 7 6 13 11 7 7 9 18 13 15 11 14 18 14 6 18 20 20 21 22
16 18 16 14 13 13 14 11 10 10 10 11 11 11 10 7 4 1 1 3 7 2 6 6 5 6 3 5 15 4 11 9 9 18 10 6 14 16 19 20 19 19 14 11 11
18 17 16 16 16 14 14 14 11 9 11 12 11 10 9 5 9 9 8 6 4 4 4 6 6 7 3 10 15 5 4 12 13 16 13 9 8 11 25 21 17 9 5 9 6
19 18 17 14 14 14 15 14 14 11 8 10 11 9 8 7 9 9 9 5 1 2 4 4 5 8 7 9 6 13 17 14 15 21 17 10 9 5 19 16 2 5 4 10 26
24 21 19 16 15 16 14 16 14 14 11 8 10 10 11 15 5 11 4 3 8 2 3 4 5 4 11 7 12 15 7 10 20 19 8 9 4 2 8 6 3 20 31 22 25
25 25 23 19 17 17 19 16 17 16 13 10 9 8 9 8 12 9 7 3 4 2 4 4 6 7 5 6 8 4 3 2 7 9 13 9 5 7 12 13 27 28 30 28 29
26 25 24 20 19 19 19 19 18 18 12 10 9 5 10 8 14 14 8 10 9 5 7 5 5 4 4 3 5 4 4 6 4 4 5 4 2 8 18 22 24 27 30 28 26
24 25 27 21 18 20 20 19 19 17 7 9 10 9 10 10 9 11 11 11 7 5 6 9 5 2 1 3 4 4 4 5 4 6 2 3 1 9 26 29 24 27 29 32 34
22 22 22 21 18 23 19 17 11 2 6 14 8 8 5 4 8 13 10 7 6 7 4 8 3 6 8 5 2 4 3 4 6 9 2 3 4 10 19 26 25 26 28 30 32
18 19 19 20 20 21 21 10 9 4 2 26 27 27 20 11 10 13 13 10 9 7 10 4 10 13 9 2 3 3 6 7 8 3 5 5 4 7 18 21 26 23 25 27 30
15 14 15 15 18 21 22 17 9 5 3 12 24 20 27 19 17 17 23 14 6 10 10 8 9 7 3 4 6 5 6 8 3 5 5 5 3 14 14 24 24 23 22 24 27
16 10 12 16 15 19 22 16 12 7 2 7 8 13 23 16 8 25 31 15 9 8 7 9 15 6 6 6 5 6 6 5 4 4 3 4 1 4 7 14 18 21 22 24 27
19 13 16 19 14 15 20 19 9 5 3 5 7 8 17 25 5 21 29 22 7 7 4 7 3 4 4 5 7 4 6 4 4 6 3 7 3 0 9 7 11 16 22 25 29
20 17 17 16 23 22 17 13 16 2 8 5 8 8 10 21 9 12 23 11 7 7 10 9 9 6 6 8 5 4 6 10 9 3 1 10 10 3 4 3 10 16 22 26 31
21 15 22 24 32 25 16 26 2 5 5 10 4 5 14 8 11 10 10 7 6 4 5 6 11 6 7 2 5 7 3 3 2 1 5 1 8 4 8 9 10 14 20 22 28
21 20 23 29 29 26 33 2 7 10 13 2 8 8 14 11 10 12 12 10 14 8 1 8 4 13 8 7 2 6 4 4 3 0 4 5 5 4 10 15 15 13 17 20 30
24 23 26 37 39 39 28 8 9 9 12 18 9 9 15 14 7 13 11 15 14 16 5 4 9 8 13 5 5 3 4 3 1 4 3 5 5 6 8 8 12 15 20 22 24
25 27 38 39 45 42 13 16 14 16 18 9 17 12 10 18 12 10 9 10 16 15 11 2 3 10 6 3 8 4 0 1 0 1 3 1 5 1 9 11 11 11 17 21 23
28 23 31 50 49 32 12 11 20 21 25 12 19 9 9 12 17 6 5 7 9 5 8 0 2 5 7 6 6 3 2 1 2 3 3 1 1 2 4 6 8 11 17 20 20
37 8 36 63 15 14 16 25 19 23 29 12 9 13 3 14 11 10 9 5 12 12 6 1 2 3 6 7 4 4 5 4 4 1 1 3 2 3 4 4 7 10 14 17 18
30 7 54 69 15 12 7 15 20 20 15 12 8 10 18 7 5 7 6 4 18 6 4 5 2 2 3 4 3 2 5 5 4 3 4 3 3 4 3 3 5 6 11 15 19
9 5 14 36 19 17 17 14 17 23 18 18 13 5 6 5 2 6 5 2 14 8 6 2 1 5 6 4 3 5 6 6 4 2 2 3 4 2 1 2 2 3 9 13 18
1 4 11 12 5 15 20 15 21 11 13 20 3 6 5 5 7 6 6 7 6 5 4 2 2 3 3 7 4 3 6 7 3 3 2 4 5 1 4 4 4 12 13 16 19
2 6 11 20 9 13 17 14 22 19 12 16 8 11 10 6 14 15 11 5 5 3 5 2 2 3 6 4 9 4 4 10 6 4 6 5 3 1 1 4 13 13 14 16 19
3 6 15 18 10 10 14 12 18 13 10 20 11 9 14 10 8 10 14 18 8 8 7 6 3 2 3 11 6 2 4 4 7 5 2 3 3 1 1 10 13 12 13 15 17
Wind_Direction
310 320 326 329 330 333 335 335 336 330 324 324 324 326 321 320 312 277 273 280 300 318 342 14 356 328 297 263 284 281 46 288 262 323 312 0 17 8 360 8 3 2 6 346 352
299 304 312 320 322 325 329 331 334 331 323 321 319 321 319 318 305 258 264 274 311 327 265 355 352 1 349 297 270 174 153 236 248 6 341 351 6 357 10 355 336 340 330 333 330
287 294 299 303 311 314 320 323 326 325 322 319 317 319 320 319 310 255 228 277 351 328 328 26 349 327 292 294 277 247 210 254 286 334 9 352 358 348 356 329 316 325 329 322 322
280 281 283 290 297 304 310 314 319 319 318 313 315 315 314 309 306 337 227 323 321 323 33 351 309 305 269 279 294 301 268 268 302 317 347 348 333 325 305 291 300 304 314 338 351
270 270 271 284 284 292 301 307 306 311 314 312 310 318 322 288 269 276 267 319 346 33 358 326 320 316 340 337 326 307 321 332 319 314 315 304 289 271 278 289 295 293 4 347 333
266 271 271 274 287 283 288 294 301 301 305 306 305 311 306 269 276 278 273 293 90 257 301 302 346 339 309 279 295 305 317 303 296 291 285 271 277 325 288 295 64 20 330 17 57
257 262 267 272 277 278 277 283 290 296 296 295 298 302 281 255 275 293 297 142 241 209 247 27 284 316 325 315 321 305 313 308 270 251 229 177 305 227 357 118 53 41 71 44 32
258 251 260 266 274 282 282 279 281 283 290 294 290 283 257 264 220 232 275 258 313 261 273 293 288 276 253 269 312 255 221 295 294 168 158 118 251 285 3 358 65 49 39 32 25
254 259 251 261 269 274 279 279 283 278 285 288 280 263 269 249 239 233 217 244 254 240 284 282 295 245 284 185 327 240 241 207 289 170 117 114 220 337 360 75 55 42 33 23 6
254 251 255 252 260 267 279 284 284 274 286 278 234 277 250 237 246 212 208 215 250 266 270 254 235 251 259 112 230 326 331 347 333 295 81 99 301 37 66 68 54 41 28 16 8
257 257 256 251 247 269 279 276 286 295 228 227 233 224 360 216 205 186 204 214 229 255 230 207 184 217 235 242 208 315 284 277 294 294 80 31 355 78 76 66 52 39 26 17 5
253 257 256 253 245 264 266 248 221 201 263 247 260 257 259 210 177 210 197 198 199 229 241 290 227 240 265 197 270 297 291 290 281 305 73 350 348 103 80 71 61 44 28 11 1
246 260 254 248 242 251 264 243 237 236 259 262 250 247 228 217 217 215 192 204 225 221 235 226 235 109 211 268 282 250 242 257 249 349 346 288 117 124 82 67 54 45 30 14 4
240 254 231 231 249 241 226 245 223 178 10 264 223 250 207 208 250 220 197 185 208 227 253 257 248 230 227 239 246 259 285 357 350 11 197 69 21 144 69 55 44 33 22 8 2
239 228 233 225 230 219 235 240 198 157 248 213 200 191 204 180 116 211 201 200 234 220 173 244 259 159 247 252 273 244 336 312 291 276 334 253 171 305 50 21 28 22 15 6 2
249 228 237 224 238 243 235 207 156 140 213 242 169 193 171 186 242 168 171 182 214 257 265 228 253 173 217 248 181 292 290 269 245 203 323 240 197 359 49 16 17 12 8 360 358
252 234 234 219 220 222 204 152 118 231 203 231 170 211 184 163 228 174 172 172 183 178 239 234 232 214 202 279 254 214 262 298 356 155 218 22 68 89 91 75 50 16 6 356 357
259 251 231 233 217 203 169 105 217 208 240 228 156 191 187 172 217 179 187 199 217 244 212 196 272 195 159 195 320 196 205 182 250 234 263 24 128 109 86 72 52 15 1 352 358
261 243 228 216 207 183 168 210 201 219 214 237 163 189 208 200 158 216 204 209 206 206 222 193 230 136 154 171 184 196 203 213 70 292 51 129 97 75 46 37 12 3 1 354 353
238 223 224 209 196 182 188 219 216 230 249 241 222 193 192 203 209 179 193 217 216 203 143 337 132 149 146 89 284 210 270 54 62 177 251 90 145 73 6 360 360 10 357 348 349
210 199 218 198 182 181 201 214 218 224 233 236 231 232 204 194 210 186 214 258 182 98 106 312 134 194 114 202 199 196 209 294 107 128 185 312 218 67 17 15 352 359 357 350 351
184 191 182 176 166 197 205 205 219 215 243 234 197 267 308 202 198 183 206 209 126 119 138 140 186 185 198 209 194 60 133 113 117 267 168 181 208 97 85 37 9 11 3 4 360
161 118 168 170 183 194 176 201 223 224 223 207 238 215 218 245 168 160 164 232 134 122 129 181 255 112 157 89 98 188 132 140 132 123 219 132 229 111 23 15 10 355 16 11 9
129 143 154 190 206 180 182 192 204 223 237 214 211 199 167 189 21 153 134 291 129 101 93 51 271 160 186 180 149 144 146 91 107 136 218 197 167 266 282 283 353 357 35 17 19
76 117 160 189 203 185 178 172 194 194 220 204 204 175 149 155 176 198 174 121 96 106 92 86 228 206 216 158 122 133 167 115 135 147 167 162 144 181 207 224 134 47 34 24 23
15 135 184 160 146 177 180 195 189 204 179 185 165 204 185 189 192 178 146 147 164 146 160 223 257 240 199 152 128 147 178 149 139 136 125 162 145 202 194 131 63 37 28 30 25
121 188 156 169 164 176 193 183 197 196 208 186 176 161 204 196 174 157 154 149 161 152 188 164 178 135 242 136 111 17 210 105 104 76 64 227 120 95 352 92 74 46 37 37 31
Height
1540 1540 1541 1540 1540 1539 1537 1536 1535 1534 1533 1532 1530 1528 1526 1524 1523 1522 1521 1524 1523 1521 1521 1520 1520 1520 1521 1522 1521 1521 1529 1536 1526 1519 1515 1505 1506 1508 1508 1507 1508 1510 1515 1515 1514
1538 1538 1539 1540 1539 1538 1537 1536 1534 1533 1533 1532 1530 1528 1526 1523 1521 1521 1520 1521 1521 1521 1521 1520 1518 1519 1520 1520 1521 1519 1531 1526 1514 1515 1514 1511 1510 1509 1509 1510 1510 1511 1511 1513 1511
1536 1537 1537 1538 1538 1538 1536 1534 1533 1532 1531 1532 1530 1528 1527 1524 1521 1518 1520 1520 1521 1521 1522 1520 1520 1522 1521 1520 1517 1517 1522 1514 1510 1510 1512 1511 1510 1512 1512 1514 1514 1514 1514 1512 1511
1532 1534 1534 1535 1536 1536 1536 1533 1532 1531 1530 1530 1528 1527 1525 1525 1525 1519 1520 1521 1521 1521 1521 1522 1521 1521 1520 1520 1516 1517 1510 1511 1510 1509 1509 1511 1512 1512 1511 1511 1513 1514 1514 1514 1514
1529 1529 1531 1533 1533 1534 1534 1533 1531 1529 1530 1530 1528 1526 1526 1525 1520 1520 1518 1520 1520 1521 1521 1521 1521 1520 1520 1519 1516 1513 1509 1509 1508 1509 1512 1512 1513 1513 1507 1509 1510 1512 1513 1513 1513
1525 1526 1527 1529 1529 1529 1531 1530 1530 1529 1527 1527 1527 1526 1526 1526 1518 1518 1518 1518 1518 1520 1520 1521 1520 1521 1520 1518 1519 1514 1510 1509 1508 1508 1510 1511 1511 1510 1505 1507 1509 1511 1512 1513 1508
1520 1522 1523 1525 1526 1527 1526 1528 1527 1529 1527 1525 1526 1524 1526 1520 1519 1517 1518 1517 1519 1519 1520 1520 1519 1521 1520 1517 1516 1514 1515 1510 1504 1503 1507 1509 1511 1510 1509 1509 1510 1511 1510 1510 1510
1514 1517 1519 1521 1523 1523 1525 1523 1524 1525 1525 1525 1524 1523 1519 1516 1516 1517 1519 1518 1517 1519 1519 1519 1518 1519 1519 1517 1516 1515 1514 1517 1498 1497 1502 1505 1518 1506 1507 1507 1511 1511 1511 1511 1511
1506 1511 1515 1516 1518 1520 1520 1521 1520 1522 1522 1524 1525 1523 1515 1512 1514 1514 1516 1519 1517 1518 1519 1519 1517 1517 1516 1519 1524 1514 1521 1513 1505 1498 1502 1504 1511 1506 1504 1507 1513 1514 1514 1513 1508
1502 1504 1508 1512 1515 1514 1517 1517 1518 1517 1520 1524 1524 1526 1513 1508 1510 1512 1514 1516 1517 1517 1517 1518 1517 1517 1516 1521 1531 1518 1516 1513 1514 1506 1504 1509 1511 1510 1512 1512 1518 1518 1518 1515 1512
1498 1499 1502 1506 1510 1512 1514 1514 1518 1515 1514 1519 1515 1509 1506 1506 1509 1510 1512 1513 1517 1516 1516 1513 1518 1519 1513 1510 1508 1509 1511 1515 1510 1503 1504 1505 1509 1518 1518 1517 1519 1521 1521 1520 1517
1494 1497 1498 1500 1505 1508 1510 1512 1512 1516 1513 1514 1510 1508 1505 1506 1506 1508 1512 1513 1513 1516 1514 1515 1515 1505 1505 1505 1506 1509 1511 1513 1507 1504 1507 1510 1515 1519 1520 1522 1524 1526 1525 1524 1519
1491 1493 1494 1496 1501 1503 1507 1508 1514 1514 1515 1504 1500 1497 1500 1502 1501 1502 1505 1507 1508 1511 1510 1513 1505 1501 1503 1505 1506 1507 1509 1510 1508 1505 1506 1509 1519 1521 1524 1523 1526 1529 1529 1527 1522
1488 1489 1491 1494 1501 1499 1503 1507 1513 1516 1520 1493 1492 1482 1488 1495 1493 1498 1498 1502 1504 1504 1505 1504 1498 1499 1503 1505 1503 1511 1502 1502 1504 1512 1525 1508 1535 1520 1524 1526 1529 1531 1532 1528 1522
1482 1487 1486 1490 1492 1495 1504 1507 1512 1516 1513 1477 1477 1478 1479 1483 1487 1486 1493 1497 1499 1498 1501 1505 1497 1501 1505 1503 1501 1505 1502 1504 1505 1511 1513 1509 1525 1526 1523 1529 1534 1535 1531 1527 1522
1475 1481 1483 1486 1488 1493 1500 1508 1512 1519 1497 1473 1470 1472 1478 1481 1483 1483 1488 1494 1497 1499 1496 1498 1495 1497 1501 1499 1498 1499 1504 1503 1502 1509 1533 1497 1504 1534 1534 1537 1534 1534 1531 1527 1522
1468 1474 1477 1480 1483 1489 1499 1505 1516 1503 1472 1468 1468 1472 1474 1478 1486 1481 1487 1491 1496 1503 1500 1493 1493 1494 1496 1501 1499 1501 1508 1525 1522 1524 1515 1484 1507 1534 1534 1535 1537 1535 1532 1530 1524
1463 1467 1470 1473 1483 1484 1496 1505 1499 1482 1475 1460 1464 1469 1472 1475 1481 1481 1486 1490 1490 1489 1489 1498 1507 1490 1491 1497 1499 1497 1502 1519 1512 1521 1518 1491 1522 1536 1534 1535 1537 1537 1534 1530 1523
1453 1457 1461 1464 1472 1478 1488 1490 1481 1474 1465 1465 1466 1472 1474 1471 1477 1480 1482 1484 1480 1482 1492 1483 1487 1478 1486 1489 1493 1495 1505 1496 1503 1501 1523 1515 1528 1532 1534 1534 1535 1536 1531 1529 1525
1438 1447 1446 1454 1465 1477 1481 1475 1469 1464 1463 1460 1462 1462 1467 1467 1475 1481 1479 1470 1472 1471 1476 1482 1492 1482 1486 1490 1490 1492 1490 1506 1504 1516 1516 1508 1520 1527 1534 1534 1535 1534 1533 1529 1525
1428 1435 1428 1446 1460 1470 1463 1458 1458 1458 1461 1458 1457 1457 1454 1462 1464 1474 1470 1468 1464 1470 1473 1480 1488 1488 1486 1492 1490 1493 1494 1496 1499 1509 1523 1530 1533 1534 1536 1535 1536 1534 1532 1528 1524
1409 1416 1421 1432 1451 1452 1447 1439 1451 1454 1455 1453 1455 1458 1451 1458 1459 1466 1468 1468 1461 1468 1477 1481 1485 1492 1484 1480 1482 1484 1488 1495 1521 1509 1515 1519 1534 1533 1535 1534 1534 1531 1529 1527 1524
1397 1410 1417 1420 1427 1436 1441 1443 1446 1448 1447 1449 1450 1449 1456 1455 1461 1460 1464 1467 1467 1471 1477 1481 1489 1501 1490 1485 1482 1486 1491 1494 1500 1505 1513 1533 1536 1532 1534 1532 1532 1531 1529 1526 1521
1393 1405 1413 1418 1417 1424 1433 1436 1440 1442 1442 1442 1444 1445 1448 1454 1455 1459 1468 1474 1468 1473 1478 1479 1482 1489 1509 1494 1489 1493 1489 1493 1499 1516 1523 1529 1530 1535 1532 1531 1531 1530 1528 1527 1520
1389 1388 1395 1404 1414 1415 1422 1427 1434 1435 1436 1437 1441 1441 1447 1453 1459 1463 1466 1472 1474 1476 1478 1481 1485 1478 1477 1480 1486 1488 1489 1498 1500 1504 1509 1518 1523 1527 1529 1528 1528 1528 1528 1526 1520
1393 1393 1400 1402 1414 1415 1417 1421 1424 1429 1428 1429 1435 1440 1445 1450 1455 1455 1461 1468 1474 1479 1480 1481 1485 1479 1482 1478 1487 1492 1490 1495 1500 1503 1509 1515 1519 1524 1523 1524 1526 1528 1527 1525 1520
1394 1395 1399 1405 1410 1415 1412 1415 1419 1422 1424 1425 1432 1439 1443 1443 1446 1448 1455 1464 1469 1475 1480 1483 1487 1486 1486 1482 1492 1505 1498 1498 1504 1508 1510 1514 1521 1522 1521 1523 1526 1527 1526 1524 1520